Regional Weather Roundup
Issued by NWS

Home | Current Version | Previous Version | Text Only | Print | Product List | Glossary On
Versions: 1 2 3 4 5 6 7 8 9 10 11 12 13 14 15 16 17 18 19 20 21 22 23 24 25 26 27 28
000
ASUS44 KBMX 010110
RWRAL

ALABAMA REGIONAL WEATHER ROUNDUP
NATIONAL WEATHER SERVICE BIRMINGHAM AL
800 PM CDT SAT APR 30 2016

NOTE: "FAIR" INDICATES FEW OR NO CLOUDS BELOW 12,000 FEET
WITH NO SIGNIFICANT WEATHER AND/OR OBSTRUCTIONS TO VISIBILITY.

THE REMARK "TC" DENOTES TEMPERATURE IN DEGREES CELSIUS.

ALZ001>011-014-016>018-020-010200-
NORTH ALABAMA

CITY           SKY/WX    TMP DP  RH WIND       PRES   REMARKS
MUSCLE SHOALS  NOT AVBL
HUNTSVILLE     CLOUDY    73  66  78 E5        29.86S
DECATUR        CLOUDY    67  66  97 N3        29.86R
HALEYVILLE     CLOUDY    71  67  87 S3        29.88R
GADSDEN        CLOUDY    77  67  71 SW5       29.89F
$$

ALZ012-013-022-023-030>036-040>044-010200-
WEST CENTRAL ALABAMA

CITY           SKY/WX    TMP DP  RH WIND       PRES   REMARKS
TUSCALOOSA     CLOUDY    76  69  79 SE12G22   29.81R
$$

ALZ015-024>027-033>036-040>044-010200-
CENTRAL ALABAMA

CITY           SKY/WX    TMP DP  RH WIND       PRES   REMARKS
BIRMINGHAM     CLOUDY    77  67  71 SE21G28   29.82F
MONTGOMERY     MOCLDY    78  67  68 CALM      29.92F
SHELBY CO ARPT CLOUDY    77  67  71 SE8       29.87F
MAXWELL AFB    MOCLDY    77  69  74 S5        29.91F
GREENVILLE     FAIR      77  67  71 SW6       29.94R
$$

ALZ019-021-028-029-037-038-045>048-010200-
EAST CENTRAL ALABAMA

CITY           SKY/WX    TMP DP  RH WIND       PRES   REMARKS
ANNISTON       CLOUDY    74  66  76 SW3       29.91F
ALEXANDER CITY MOCLDY    75  72  88 CALM      29.94S
AUBURN         MOCLDY    77  66  68 SW8       29.97
$$

ALZ051>064-010200-
SOUTHWEST ALABAMA

CITY           SKY/WX    TMP DP  RH WIND       PRES   REMARKS
MOBILE         TSTM      67  67 100 SE13      29.94F FOG
BROOKLEY FIELD TSTM      68  67  96 N10G21    29.97R FOG
EVERGREEN      CLOUDY    74  69  85 CALM      29.95R
$$

ALZ049-050-065>069-010200-
SOUTHEAST ALABAMA

CITY           SKY/WX    TMP DP  RH WIND       PRES   REMARKS
DOTHAN         MOCLDY    79  64  60 SW7       29.98R
OZARK          MOCLDY    78  66  67 SW5       29.95R
TROY           CLOUDY    79  67  66 SW3       29.95R
EUFAULA        FAIR      75  69  81 CALM      29.93R
$$




USA.gov is the U.S. government's official web portal to all federal, state and local government web resources and services.